Location: Bryzozowice
(50.3667°N, 18.9667°E)
Time: 18:49:10
(UTC+00:00)

CSL-04 Debris - Pass Details

Date: 24 January 2020
Orbit: 827 x 848 km, 99.0° (Epoch: 16 February)

Event Time Altitude Azimuth Distance (km) Brightness Sun altitude
Rises 16:40:59 0° 149° (SSE) 3,358 7.2 -12.3°
Reaches altitude 10° 16:43:21 10° 146° (SE) 2,429 6.4 -12.7°
Maximum altitude 16:48:37 58° 68° (ENE) 963 4.2 -13.5°
Drops below altitude 10° 16:53:56 10° 351° (N) 2,453 6.6 -14.3°
Sets 16:56:20 0° 348° (NNW) 3,394 7.4 -14.7°
